マクノート彗星

C/2005 L2 ( McNaught )

English version
Home page
Updated on May 8, 2006

---------------------------------------------------------------------

・ プロフィール

発見日 2005年6月2日
発見光度 18.5等
発見者 R. H. McNaught (Siding Spring)

・ 軌道要素

Epoch 2005 July 9.0 TT = JDT 2453560.5
T 2005 July 14.51738 TT                                 MPC
q   3.1938499            (2000.0)            P               Q
z  +0.0000316      Peri.  294.23173     -0.70607715     -0.68296599
 +/-0.0000179      Node   155.86517     -0.35890727     +0.57292970
e   0.9998991      Incl.  152.76602     -0.61044298     +0.45311038

・ 星図

・ 光度変化

        m1 = 11.5 + 5 logΔ + 10.0 log r

---------------------------------------------------------------------

軌道要素はM.P.E.C. 2006-C64に掲載されたものです。
星図は StellaNavigator Ver.2.0 for Windows (アストロアーツ 編著 / アスキー出版局刊) で作成したものです。
光度グラフはComet for Windowsで作成したものです。

---------------------------------------------------------------------

Copyright(C) Seiichi Yoshida (comet@aerith.net). All rights reserved.